Temperature
26 25 25 25 28 29 30 31 31 30 30 30 30 29 28 27 26 24 24 22 21 21 21 20 20 19 19 19 19 19 19 19 19 18 18 18 18 18 18 18 18 18 18 18 18 18 18 18 18
26 25 26 28 28 29 30 31 31 31 31 30 29 28 28 27 26 24 23 22 21 20 20 20 20 20 19 19 19 19 19 19 19 18 18 18 18 18 18 18 18 18 18 18 18 18 18 18 18
26 27 28 29 29 30 30 31 31 31 31 30 29 28 27 26 25 24 23 22 21 20 20 20 20 20 19 19 19 19 19 19 19 18 18 18 18 18 18 18 18 18 18 18 18 18 18 18 18
26 29 30 30 31 32 32 32 32 32 31 30 29 28 26 26 25 24 23 22 21 20 20 20 20 20 19 19 19 19 19 19 18 18 18 18 18 18 18 18 18 18 18 18 18 18 18 18 18
28 30 30 30 31 33 33 33 32 32 31 30 28 27 25 25 24 24 23 22 21 20 20 20 20 20 19 19 19 19 19 18 18 18 18 18 18 18 18 18 18 18 18 18 18 18 18 18 18
30 31 30 30 31 33 33 33 32 32 31 30 28 26 25 24 24 24 23 23 22 20 20 21 20 20 20 19 19 19 19 19 18 18 18 18 18 18 18 18 18 18 18 18 18 18 18 18 18
31 31 31 32 32 32 33 33 32 32 31 30 29 27 25 25 24 24 24 23 22 21 20 20 20 20 20 19 19 19 19 19 18 18 18 18 18 18 18 18 18 18 18 18 18 18 18 18 18
31 31 31 32 32 32 33 33 32 31 31 30 29 27 25 25 24 24 24 23 23 21 20 19 19 20 20 20 19 19 19 19 19 19 18 18 18 18 18 18 18 18 18 18 18 18 18 18 18
32 31 31 32 33 33 33 33 32 31 31 30 29 28 26 25 25 24 24 23 23 22 21 20 19 19 19 19 19 19 19 19 19 19 18 18 18 18 18 18 18 18 18 18 18 18 18 18 18
33 31 32 33 34 34 33 33 32 31 30 29 28 26 25 25 25 24 24 23 23 22 22 21 20 20 19 19 19 19 18 19 18 18 18 18 18 18 18 18 18 18 18 18 18 18 18 18 18
33 32 33 34 34 34 33 33 32 31 30 29 27 26 25 25 25 24 24 23 22 22 22 21 21 20 20 19 19 19 18 19 18 18 18 18 18 18 18 18 18 18 18 18 18 18 18 18 18
33 34 34 35 34 34 33 33 32 31 30 29 28 26 25 25 25 25 24 23 22 22 22 21 21 20 20 20 19 19 19 19 19 19 18 18 18 18 18 18 18 18 18 18 18 18 18 18 18
34 34 34 34 34 34 33 33 33 32 30 29 27 26 26 25 25 25 24 23 22 22 22 21 21 20 20 20 20 20 19 19 19 19 19 18 18 18 18 18 18 18 18 18 18 18 18 18 18
34 34 34 34 34 34 34 33 33 32 30 29 28 26 26 26 25 25 24 23 22 22 21 21 20 20 20 20 20 19 20 19 19 19 19 19 18 18 18 18 18 18 18 18 18 18 18 18 18
34 34 34 34 34 34 33 33 33 32 30 29 28 27 27 26 25 25 24 23 22 22 21 21 20 20 20 20 20 20 20 20 19 19 19 19 18 18 18 18 18 18 18 18 18 18 18 18 18
33 32 32 33 34 34 32 31 32 31 31 30 29 28 27 26 25 25 24 23 22 22 21 21 20 20 20 20 20 20 20 20 19 19 19 19 19 18 18 18 18 18 18 18 18 18 18 18 18
32 31 31 33 34 34 33 31 32 32 31 30 29 28 27 26 26 25 24 23 22 22 21 21 20 20 20 20 20 20 20 20 20 19 19 19 19 19 18 18 18 18 18 18 18 18 18 18 18
32 32 32 33 34 33 32 32 32 32 32 31 30 29 27 26 26 25 24 23 22 22 21 21 20 20 20 19 19 20 19 20 19 19 19 19 19 19 19 19 18 18 18 18 18 18 18 18 18
33 33 33 33 34 33 32 32 33 33 32 31 30 29 28 27 26 25 24 23 22 21 21 21 20 20 20 19 19 20 20 19 19 19 19 19 19 19 19 18 18 18 18 18 18 18 18 18 18
33 33 33 34 34 33 32 32 33 33 33 32 31 30 28 27 26 25 24 23 22 21 21 21 21 21 20 20 20 19 19 19 19 19 19 19 19 19 19 19 19 18 18 18 18 18 18 18 18
32 33 33 33 33 33 32 32 32 33 33 32 31 30 29 28 26 25 24 23 22 22 21 21 21 21 21 20 20 19 19 19 19 19 19 19 19 19 19 18 18 18 18 18 18 18 18 18 18
32 33 33 33 32 31 32 30 31 32 32 32 31 31 29 28 27 25 24 23 22 22 21 21 21 21 21 20 20 20 19 19 19 19 19 19 19 19 19 19 18 18 18 18 18 18 18 18 18
32 34 33 33 32 31 32 31 30 31 31 31 31 31 30 28 27 26 25 24 23 22 21 21 21 21 20 20 20 20 19 19 19 19 19 19 19 19 19 18 18 18 18 18 18 18 18 18 18
33 33 32 32 32 30 31 31 30 31 31 31 31 30 30 29 27 26 25 24 23 22 21 21 21 21 20 20 20 20 19 19 19 19 19 19 19 19 19 18 18 18 18 18 18 18 18 18 18
32 31 29 29 29 30 32 31 30 31 32 32 31 30 30 29 27 26 25 24 23 22 21 21 20 20 20 20 20 20 19 19 19 19 19 19 18 18 18 18 18 18 18 18 18 18 18 18 18
31 31 29 28 29 30 31 31 32 32 32 31 31 30 29 28 27 26 25 24 23 22 22 21 20 20 20 20 19 19 19 19 19 19 19 18 18 18 18 18 18 18 18 18 18 18 18 18 18
31 31 32 31 30 30 30 30 32 32 32 31 30 30 29 28 27 26 25 24 23 22 22 21 20 20 20 20 19 19 19 19 19 18 18 18 18 18 18 18 18 18 18 18 18 18 17 17 17
32 32 31 30 29 29 29 30 30 31 31 31 30 29 29 28 27 26 25 24 23 22 21 21 20 20 20 19 19 19 19 18 18 18 18 18 18 18 18 18 18 18 17 17 17 17 17 17 17
31 31 31 31 30 29 29 29 31 30 31 31 30 29 28 27 27 26 24 23 23 22 21 21 20 20 19 19 19 18 18 18 18 18 18 18 18 18 17 17 17 17 17 17 17 17 17 17 17
32 31 31 29 29 29 29 28 30 30 31 31 30 29 28 27 26 25 23 23 22 22 21 20 20 20 19 19 19 18 18 18 18 18 17 17 17 17 17 17 17 17 17 17 17 17 16 16 16
Wind_Speed
10 12 10 6 3 2 13 15 16 15 14 13 13 15 18 16 12 13 15 21 21 19 18 17 16 16 16 15 15 15 15 14 14 14 14 15 15 15 16 16 16 16 17 17 17 16 16 16 16
11 13 8 4 1 8 14 15 15 13 12 13 15 18 18 19 18 17 17 19 21 19 18 17 17 16 15 15 14 14 14 14 14 14 14 14 15 15 15 16 16 16 16 16 16 16 15 15 14
12 14 6 2 4 11 15 14 13 13 12 14 17 17 14 15 16 15 17 20 20 18 19 18 17 16 15 14 14 14 14 13 13 13 13 14 14 15 15 15 15 16 16 16 16 16 15 14 13
9 6 3 1 11 15 14 12 13 13 12 13 16 13 14 14 16 18 18 20 20 18 19 18 17 16 15 14 13 13 13 13 13 13 13 13 14 14 15 15 15 15 15 16 15 15 14 12 11
9 5 1 5 11 14 13 12 12 12 12 16 18 17 15 15 18 18 18 18 18 19 19 18 17 16 14 13 13 12 12 12 12 12 12 12 13 13 14 14 14 15 15 14 14 13 12 11 9
5 4 0 6 10 13 12 12 12 13 13 16 18 17 13 15 16 16 16 17 19 19 19 18 16 15 14 13 12 12 11 11 11 12 12 12 12 13 13 14 14 14 13 13 13 12 11 9 6
7 6 2 6 9 11 11 11 11 12 11 12 16 15 12 14 14 14 15 15 18 19 18 16 16 14 13 12 12 11 11 11 11 11 11 12 12 12 13 13 13 13 12 12 11 11 9 7 5
5 5 5 5 9 11 11 11 11 12 10 10 12 12 15 16 15 14 14 14 16 17 16 15 16 15 14 12 11 11 11 11 11 11 11 11 12 12 12 12 12 11 11 10 10 9 8 6 3
6 4 3 4 8 10 10 10 11 11 9 10 12 17 20 19 17 15 13 13 12 13 13 14 15 14 14 14 13 12 11 11 10 10 10 11 10 11 10 12 11 10 10 9 8 8 7 6 4
3 3 2 4 7 9 8 8 9 9 8 13 18 20 20 18 16 15 14 13 12 11 11 11 11 10 10 12 12 11 10 11 9 9 10 8 7 9 11 12 10 9 9 8 8 8 7 7 7
4 1 1 4 8 7 6 6 8 9 9 12 18 21 19 18 16 14 13 13 12 10 9 12 11 7 7 8 9 8 8 10 9 8 8 8 8 10 11 9 9 9 9 8 9 9 9 7 5
3 2 1 4 6 5 4 5 8 9 10 14 19 21 19 18 16 14 14 13 12 10 9 11 11 7 4 5 5 6 6 7 7 9 8 7 4 5 7 7 8 9 7 7 7 7 6 4 3
4 3 2 1 2 3 4 5 7 10 13 16 19 19 18 17 15 13 13 13 12 9 8 9 10 7 4 3 1 4 4 6 7 7 6 7 5 3 4 3 4 6 7 6 4 3 3 2 1
4 4 2 3 2 2 3 5 6 10 14 16 17 17 17 16 15 13 12 12 12 10 9 10 9 8 6 3 1 0 3 4 6 7 8 7 5 5 4 3 2 3 4 4 4 3 3 2 1
7 6 6 6 5 4 3 4 7 11 14 15 15 15 15 14 14 13 13 12 12 10 9 9 9 9 7 6 4 4 4 7 5 6 8 6 6 6 4 3 3 3 3 3 2 2 2 3 3
8 8 9 8 7 6 4 4 7 11 13 13 14 14 14 13 14 13 13 11 11 11 10 9 9 11 8 5 4 3 3 4 5 7 8 7 6 7 4 3 3 4 4 4 2 2 2 2 2
11 11 10 9 9 7 5 3 7 10 12 13 13 13 14 13 13 13 13 13 11 10 10 9 6 10 9 7 5 4 2 1 4 5 6 7 7 6 4 3 3 4 3 2 3 3 2 2 2
9 10 9 9 10 8 6 6 8 9 11 12 13 14 14 14 13 12 12 13 11 10 10 9 7 7 8 6 5 3 3 2 2 3 5 7 7 7 5 4 3 4 2 2 2 1 2 2 2
14 9 7 6 7 6 7 7 8 9 9 9 11 13 14 14 14 12 12 12 13 11 10 10 9 8 7 5 6 5 4 3 3 4 6 6 6 7 5 3 3 4 3 3 3 3 3 3 3
13 11 8 4 6 4 6 9 9 10 10 10 11 12 13 14 14 13 12 12 13 12 11 10 10 9 8 6 5 4 4 3 3 3 4 6 7 7 7 5 4 4 3 4 4 3 3 4 4
12 12 9 6 3 5 8 11 9 8 9 10 11 12 13 14 15 15 14 12 13 13 12 10 10 9 9 7 5 4 3 3 3 4 4 5 7 7 5 5 5 4 4 4 5 4 5 4 4
12 11 10 8 7 7 9 8 7 9 10 11 11 12 13 13 14 14 14 13 12 13 12 9 10 9 8 8 7 7 5 5 4 3 4 5 6 6 6 5 5 4 4 4 5 5 4 4 4
12 8 8 10 9 11 11 9 6 8 10 11 11 12 12 13 13 14 13 12 11 12 11 10 9 8 8 7 6 5 5 4 3 3 4 4 4 5 5 5 5 4 4 4 4 3 4 4 5
11 8 8 10 11 13 14 11 7 5 9 10 10 11 11 12 12 12 12 11 11 11 10 10 9 8 8 7 6 5 5 4 4 3 3 4 3 4 5 5 4 4 4 5 4 4 5 4 4
13 10 7 9 10 11 12 9 4 5 6 7 9 11 12 11 12 12 11 11 10 11 10 10 10 9 8 8 7 6 5 5 4 4 4 3 3 3 3 3 2 3 4 4 4 4 4 4 4
15 15 11 8 8 8 9 9 6 7 7 6 6 9 11 12 11 11 11 10 10 10 10 10 10 9 8 7 6 5 5 4 4 4 3 3 3 2 2 2 2 2 3 4 4 3 4 4 4
16 16 17 14 14 10 5 5 5 8 9 8 7 6 9 11 12 12 11 10 9 9 9 9 9 8 7 7 6 5 5 4 3 2 2 2 1 2 1 2 2 2 2 3 2 2 3 2 3
17 16 11 12 10 11 8 9 6 11 10 10 9 8 9 10 11 11 11 10 9 8 8 8 8 8 6 6 5 4 4 3 2 1 1 0 1 1 1 0 1 1 1 2 2 2 2 2 3
16 16 13 11 11 11 8 3 1 6 10 10 11 10 9 9 10 11 10 9 9 9 9 8 8 7 6 5 5 4 4 2 2 1 0 0 0 0 0 0 0 0 0 1 1 1 1 2 1
16 17 15 11 10 10 8 3 2 3 8 10 10 12 10 9 11 12 11 9 9 9 9 8 8 7 6 5 5 4 4 3 2 1 1 1 1 1 0 0 0 1 0 0 0 0 0 0 0
Wind_Direction
263 255 243 261 268 80 71 73 74 73 71 65 61 69 67 63 79 95 110 110 111 112 115 112 107 105 103 101 99 99 98 96 93 92 92 93 95 95 96 96 94 95 95 94 95 95 95 94 95
276 268 253 253 304 79 77 73 75 76 83 84 74 74 75 77 89 103 110 114 116 118 118 113 111 108 105 103 102 101 100 98 96 95 93 93 95 96 97 98 97 97 97 97 97 98 97 96 98
271 263 262 227 81 81 82 81 86 83 81 87 79 69 72 90 99 108 117 117 112 110 111 114 113 110 108 105 103 102 101 100 98 97 95 95 95 97 98 99 99 98 99 99 98 98 98 99 101
273 263 240 102 79 80 86 90 94 92 87 86 87 82 80 88 106 117 124 118 116 118 117 118 117 114 111 108 106 105 105 104 103 100 98 98 98 98 100 100 101 100 100 99 99 100 100 100 102
266 277 287 80 84 87 85 84 85 86 83 84 91 94 91 98 112 123 125 124 124 119 120 122 121 118 115 113 111 109 107 108 108 105 103 103 102 101 103 103 103 103 102 102 101 101 102 102 101
278 273 108 99 92 93 93 91 90 87 89 100 105 103 102 115 124 131 128 129 125 123 122 124 125 123 120 118 114 112 112 111 111 111 109 108 108 106 107 107 106 106 106 105 105 105 105 104 99
277 299 292 115 104 95 93 94 95 97 94 97 108 111 124 133 134 132 129 128 125 123 127 135 134 129 126 123 120 118 118 117 116 117 118 118 117 115 113 111 110 112 112 112 111 111 112 110 104
286 315 306 109 106 100 98 95 94 96 96 106 116 123 138 140 141 132 130 127 125 129 135 141 142 141 142 134 130 128 127 126 125 128 130 129 127 127 126 120 116 118 120 121 122 124 127 130 134
273 282 315 69 104 106 103 101 102 101 105 90 86 118 137 144 144 139 136 132 128 128 137 145 141 152 153 143 141 144 139 140 141 144 148 152 151 143 142 123 127 130 133 136 140 145 151 160 176
265 279 39 75 94 103 102 108 113 103 95 97 102 118 135 146 149 149 146 143 134 135 143 136 137 145 150 139 147 158 155 154 166 159 165 178 164 139 129 134 139 144 150 157 168 175 184 197 188
272 261 353 84 91 102 115 120 113 111 125 129 130 137 146 151 154 155 152 147 138 147 146 135 127 140 141 130 157 152 150 154 167 165 166 168 150 137 135 149 154 167 175 182 177 195 211 206 198
254 264 38 66 87 107 110 110 106 106 117 133 138 145 151 158 163 161 154 148 147 157 151 137 132 138 121 128 139 149 158 163 160 162 173 154 151 146 149 161 171 179 184 188 186 205 203 186 182
240 252 155 119 123 95 94 94 97 110 114 124 136 148 158 164 165 160 153 146 149 155 148 128 131 125 118 105 200 167 153 152 151 160 166 153 158 153 144 153 177 186 176 181 197 184 150 129 170
260 255 225 203 178 148 160 139 129 123 124 132 142 153 164 165 163 157 152 148 154 161 151 140 139 137 141 154 223 166 144 131 152 162 160 164 154 142 138 152 197 206 173 167 188 163 152 175 203
264 265 249 218 195 170 180 172 148 139 137 143 151 161 163 163 162 162 160 159 160 161 151 146 152 150 161 177 195 193 189 168 165 149 150 164 162 148 167 167 200 206 171 158 179 199 185 194 194
249 248 248 225 188 170 200 196 150 152 151 152 159 163 163 163 168 167 163 162 160 160 154 164 172 157 166 186 204 221 205 158 153 150 154 166 164 159 179 187 202 192 195 178 201 230 209 219 207
228 230 233 216 184 178 197 199 154 169 165 161 166 165 165 168 173 167 167 165 161 156 156 166 171 158 169 182 193 228 212 156 156 157 158 168 171 174 196 211 184 195 206 206 221 190 212 230 229
242 224 223 214 172 175 204 205 180 186 174 170 170 167 167 172 177 169 168 165 159 158 160 165 171 163 167 177 185 221 223 195 194 169 161 164 178 187 206 216 190 211 218 229 228 189 221 230 237
269 268 248 218 158 175 216 219 201 188 184 176 175 170 171 177 175 167 166 166 163 163 166 168 177 172 173 182 185 197 205 204 205 194 171 177 194 193 202 232 183 213 222 221 215 215 222 228 228
261 267 251 219 151 187 233 240 219 192 190 182 181 176 177 174 169 166 168 169 167 167 170 172 179 178 185 188 189 195 191 197 208 210 167 184 201 206 204 209 217 209 218 226 236 238 234 232 215
249 256 258 254 209 223 247 248 230 203 194 185 187 185 181 176 171 169 174 175 174 174 179 179 177 180 188 187 184 201 190 215 212 194 185 197 207 209 228 203 217 218 216 213 219 226 229 238 235
243 248 260 260 247 249 239 249 223 210 202 192 194 188 180 179 172 173 175 178 178 176 177 171 172 178 182 185 190 198 200 206 213 198 190 195 206 209 213 212 215 228 238 222 219 214 219 228 246
245 253 253 260 257 262 256 254 233 207 208 201 200 188 177 174 174 172 174 174 174 173 172 171 167 175 179 187 194 201 214 218 218 203 198 198 205 211 219 212 212 220 235 238 232 223 220 227 234
240 249 249 255 256 249 249 253 239 203 207 201 190 183 174 171 167 163 166 161 168 170 170 169 167 175 179 186 197 201 216 232 237 218 209 206 210 217 217 221 213 222 229 237 234 228 227 236 249
224 226 226 232 234 246 243 242 212 182 195 180 179 177 169 165 159 158 159 161 165 169 169 168 166 175 181 187 198 202 212 228 231 231 230 229 222 223 213 226 219 229 235 239 239 227 236 237 242
216 224 227 235 243 247 237 232 191 161 146 141 152 165 161 160 159 161 160 161 165 168 167 165 167 174 181 188 195 199 206 220 230 237 237 233 226 230 201 199 214 230 237 237 232 230 233 230 233
217 226 239 253 271 272 242 236 181 152 146 149 153 160 161 159 159 158 158 158 159 160 158 159 157 164 174 180 185 193 199 219 228 241 231 244 239 239 226 191 206 230 254 244 241 242 248 237 230
235 227 238 249 265 269 248 226 204 164 161 159 160 168 154 152 154 152 153 152 151 151 143 143 147 155 162 172 182 181 186 195 198 229 231 232 325 335 350 312 201 227 249 251 243 251 246 243 249
222 231 237 248 255 263 261 276 119 156 159 164 162 151 147 156 147 140 136 139 141 141 142 145 144 147 152 160 163 166 161 161 167 170 129 98 50 93 92 301 23 286 270 252 240 241 239 242 259
223 227 230 238 251 264 267 257 90 183 172 157 146 142 147 150 140 134 136 142 138 139 142 145 145 146 145 143 138 133 121 120 125 124 110 95 88 99 111 26 22 284 270 87 112 255 284 310 291
Height
1488 1488 1488 1491 1489 1488 1489 1484 1482 1486 1488 1490 1490 1492 1497 1500 1507 1520 1524 1525 1526 1528 1530 1532 1533 1535 1536 1537 1538 1539 1540 1541 1542 1543 1543 1544 1545 1546 1547 1547 1548 1549 1550 1551 1552 1552 1553 1554 1555
1488 1489 1492 1490 1492 1497 1495 1485 1487 1488 1490 1492 1494 1498 1502 1507 1512 1519 1524 1527 1529 1530 1532 1534 1535 1537 1538 1539 1541 1542 1542 1543 1544 1545 1546 1547 1548 1548 1549 1550 1551 1552 1553 1553 1554 1555 1556 1557 1558
1489 1490 1492 1487 1488 1493 1493 1486 1486 1488 1491 1493 1498 1503 1508 1513 1518 1522 1527 1529 1531 1533 1534 1536 1537 1539 1540 1542 1543 1544 1545 1546 1547 1548 1548 1549 1550 1551 1552 1553 1554 1554 1555 1556 1557 1558 1559 1560 1561
1491 1490 1488 1485 1487 1482 1483 1484 1486 1490 1492 1495 1500 1508 1514 1518 1521 1525 1529 1531 1533 1534 1536 1537 1539 1541 1542 1544 1545 1546 1547 1548 1549 1550 1551 1552 1553 1553 1554 1555 1556 1557 1558 1558 1559 1560 1561 1562 1563
1493 1489 1488 1490 1485 1480 1481 1484 1487 1490 1493 1497 1504 1512 1518 1522 1525 1528 1531 1533 1535 1537 1537 1539 1541 1543 1544 1546 1547 1548 1549 1550 1551 1552 1553 1554 1555 1556 1557 1558 1559 1559 1560 1561 1562 1563 1564 1565 1566
1493 1485 1493 1496 1488 1481 1483 1486 1489 1492 1496 1501 1506 1514 1522 1526 1527 1530 1533 1535 1537 1538 1539 1541 1543 1545 1546 1548 1549 1550 1551 1552 1553 1554 1555 1556 1557 1558 1559 1560 1561 1562 1562 1563 1564 1565 1566 1567 1568
1492 1488 1489 1487 1487 1485 1484 1487 1490 1494 1497 1501 1506 1514 1522 1527 1529 1532 1535 1537 1539 1540 1541 1543 1545 1547 1548 1550 1551 1552 1553 1554 1555 1556 1557 1558 1559 1560 1561 1562 1563 1564 1565 1566 1567 1568 1569 1569 1570
1489 1489 1489 1484 1486 1487 1485 1488 1491 1496 1500 1503 1506 1513 1522 1527 1530 1533 1536 1539 1542 1543 1544 1545 1547 1549 1550 1551 1553 1554 1555 1556 1557 1558 1559 1560 1561 1562 1563 1564 1565 1566 1567 1568 1569 1570 1571 1572 1573
1489 1493 1493 1486 1485 1486 1485 1489 1493 1497 1500 1503 1506 1511 1520 1526 1530 1534 1537 1540 1543 1545 1547 1548 1549 1551 1552 1553 1554 1555 1557 1558 1559 1560 1561 1562 1563 1564 1565 1566 1567 1568 1569 1570 1571 1572 1573 1574 1575
1487 1493 1488 1480 1480 1483 1487 1489 1493 1498 1503 1506 1511 1517 1522 1527 1531 1534 1537 1541 1544 1546 1548 1550 1552 1553 1555 1556 1556 1557 1558 1559 1560 1562 1563 1564 1565 1567 1567 1568 1569 1569 1570 1571 1573 1574 1575 1575 1576
1484 1486 1482 1480 1481 1485 1488 1490 1493 1497 1504 1508 1513 1518 1523 1527 1531 1534 1537 1540 1544 1547 1549 1551 1552 1554 1556 1557 1558 1559 1560 1561 1562 1563 1565 1566 1567 1568 1569 1569 1570 1571 1572 1573 1574 1575 1576 1577 1578
1484 1483 1482 1481 1484 1485 1488 1489 1493 1497 1502 1507 1512 1518 1523 1527 1530 1533 1537 1540 1543 1546 1549 1551 1552 1554 1556 1558 1559 1560 1561 1562 1563 1564 1566 1567 1568 1569 1570 1570 1571 1572 1573 1574 1575 1576 1577 1578 1579
1483 1482 1482 1484 1485 1487 1489 1491 1495 1498 1503 1508 1514 1519 1523 1526 1530 1533 1537 1540 1543 1546 1549 1551 1552 1553 1555 1557 1559 1561 1562 1563 1564 1565 1566 1568 1569 1570 1571 1571 1572 1573 1574 1575 1576 1577 1577 1578 1579
1483 1482 1482 1484 1485 1488 1490 1492 1495 1499 1504 1509 1514 1519 1522 1526 1529 1533 1536 1539 1542 1545 1548 1550 1551 1552 1554 1556 1558 1561 1562 1564 1565 1566 1566 1568 1569 1569 1570 1571 1572 1573 1574 1575 1576 1576 1577 1578 1578
1485 1485 1484 1483 1484 1487 1490 1494 1494 1499 1504 1509 1514 1518 1522 1525 1529 1532 1535 1538 1541 1544 1547 1549 1550 1551 1553 1556 1558 1560 1562 1563 1565 1566 1566 1567 1568 1569 1570 1571 1572 1573 1574 1575 1575 1576 1576 1577 1578
1486 1490 1493 1483 1483 1486 1494 1502 1494 1498 1502 1507 1512 1517 1521 1525 1528 1531 1534 1537 1540 1543 1545 1547 1550 1551 1552 1555 1557 1559 1562 1563 1564 1565 1565 1566 1568 1568 1569 1571 1571 1572 1573 1574 1575 1575 1576 1577 1577
1488 1495 1493 1485 1480 1484 1491 1498 1494 1497 1500 1505 1510 1514 1519 1524 1527 1530 1533 1536 1539 1541 1543 1546 1548 1550 1551 1554 1556 1558 1560 1561 1563 1563 1564 1565 1566 1567 1568 1570 1571 1571 1572 1573 1574 1574 1575 1575 1576
1490 1487 1487 1484 1477 1483 1490 1492 1492 1494 1497 1501 1506 1512 1517 1521 1525 1528 1532 1535 1537 1539 1542 1544 1546 1549 1550 1552 1554 1556 1558 1560 1561 1562 1563 1564 1565 1566 1567 1568 1569 1570 1571 1572 1572 1573 1573 1574 1574
1480 1481 1484 1479 1474 1483 1489 1490 1489 1491 1494 1498 1503 1508 1514 1519 1523 1527 1530 1533 1535 1537 1539 1541 1544 1546 1548 1550 1552 1554 1556 1557 1559 1560 1561 1562 1563 1564 1565 1566 1567 1568 1569 1570 1570 1571 1571 1572 1573
1481 1483 1482 1476 1474 1482 1489 1489 1485 1487 1491 1496 1500 1505 1510 1515 1520 1524 1527 1530 1532 1534 1537 1539 1541 1543 1546 1548 1550 1552 1554 1555 1556 1558 1559 1560 1561 1562 1563 1564 1565 1566 1566 1567 1568 1569 1569 1570 1571
1484 1485 1482 1482 1479 1481 1489 1492 1486 1485 1488 1493 1497 1502 1506 1511 1516 1521 1525 1527 1530 1532 1534 1537 1539 1541 1543 1546 1548 1550 1551 1553 1555 1556 1557 1558 1559 1560 1561 1562 1562 1563 1564 1564 1565 1566 1566 1567 1568
1488 1478 1478 1481 1489 1493 1489 1504 1490 1485 1486 1489 1494 1498 1503 1508 1513 1518 1522 1525 1528 1530 1532 1535 1537 1539 1541 1544 1546 1548 1549 1551 1552 1554 1555 1556 1557 1558 1558 1559 1560 1561 1561 1562 1562 1563 1563 1564 1565
1481 1475 1479 1482 1488 1494 1489 1498 1494 1484 1488 1487 1490 1495 1499 1504 1509 1514 1518 1522 1525 1528 1530 1532 1535 1537 1539 1541 1543 1546 1548 1549 1551 1552 1553 1554 1554 1555 1556 1556 1557 1557 1558 1559 1559 1560 1560 1561 1562
1477 1480 1483 1485 1489 1505 1494 1497 1498 1486 1485 1484 1487 1493 1497 1502 1507 1512 1516 1520 1523 1526 1528 1530 1532 1534 1537 1539 1541 1543 1545 1547 1548 1549 1550 1551 1551 1552 1553 1553 1554 1554 1554 1555 1556 1557 1557 1557 1558
1479 1492 1507 1511 1509 1504 1482 1489 1490 1478 1478 1481 1486 1491 1495 1500 1506 1511 1515 1518 1521 1524 1526 1528 1530 1532 1534 1536 1538 1540 1542 1544 1545 1546 1547 1548 1549 1549 1550 1550 1550 1551 1551 1552 1553 1553 1553 1554 1554
1481 1487 1506 1516 1511 1500 1485 1489 1479 1471 1475 1480 1485 1489 1493 1499 1504 1509 1513 1516 1519 1522 1524 1526 1528 1530 1532 1534 1536 1538 1539 1541 1542 1544 1545 1545 1546 1546 1547 1547 1547 1547 1547 1548 1549 1550 1550 1550 1551
1480 1483 1478 1489 1492 1499 1492 1484 1474 1470 1475 1480 1484 1489 1493 1498 1503 1508 1512 1515 1518 1521 1523 1525 1526 1528 1530 1531 1533 1535 1537 1539 1540 1541 1542 1543 1543 1544 1544 1544 1544 1545 1544 1545 1546 1546 1546 1547 1547
1470 1474 1481 1490 1505 1509 1498 1490 1483 1476 1477 1479 1484 1489 1493 1499 1503 1507 1511 1514 1517 1520 1522 1524 1526 1527 1528 1530 1532 1533 1535 1536 1538 1539 1539 1540 1540 1541 1542 1542 1542 1542 1542 1543 1543 1543 1544 1544 1544
1475 1477 1478 1481 1484 1500 1507 1498 1471 1474 1475 1478 1483 1488 1493 1497 1502 1505 1510 1513 1517 1519 1522 1523 1525 1526 1528 1529 1530 1532 1533 1535 1536 1537 1537 1538 1538 1538 1539 1539 1540 1540 1540 1540 1541 1541 1541 1541 1541
1467 1472 1476 1491 1492 1488 1496 1497 1472 1475 1475 1478 1483 1488 1493 1497 1502 1506 1510 1514 1516 1519 1521 1522 1524 1526 1527 1528 1530 1531 1532 1533 1534 1535 1535 1536 1536 1536 1537 1537 1537 1538 1538 1538 1538 1539 1539 1539 1539